Sault Ste Marie, MI

8:07 AM EDT on March 23, 2017 (GMT -0400)
Sault Ste Marie Municipal / Sanderson Field

Weather History for KANJ - August, 2013

Change the Weather History Date:

Monday, August 19, 2013

  Actual Average Record
Temperature  
Mean Temperature 69 °F 64 °F  
Max Temperature 80 °F 75 °F 92 °F (1955)
Min Temperature 57 °F 55 °F 38 °F (1981)
Degree Days  
Heating Degree Days 0 2  
Month to date heating degree days 65 38  
Since 1 June heating degree days 261 287  
Since 1 July heating degree days 115 107  
Cooling Degree Days 4 2  
Month to date cooling degree days 12 49  
Year to date cooling degree days 176 162  
Since 1 June cooling degree days 167 157  
Growing Degree Days 18 (Base 50)    
Moisture  
Dew Point 58 °F    
Average Humidity 73    
Maximum Humidity 93    
Minimum Humidity 52    
Precipitation  
Precipitation 0.00 in 0.09 in 1.54 in (1900)
Month to date precipitation 2.14 1.92  
Year to date precipitation 25.39 17.92  
Sea Level Pressure  
Sea Level Pressure 30.00 in    
Wind  
Wind Speed 7 mph (SSW)    
Max Wind Speed 21 mph    
Max Gust Speed 25 mph    
Visibility 7 miles    
Events      
T = Trace of Precipitation, MM = Missing Value Source: NWS Daily Summary

Daily Weather History Graph

Daily Weather History Graph

Search for Another Location

Airport or City:

Trip Planner

Search our weather history database for the weather conditions in past years. The results will help you decide how hot, cold, wet, or windy it might be!

Date:

Astronomy

Aug. 19, 2013 Rise Set
Actual Time 6:41 AM EDT 8:39 PM EDT
Civil Twilight 6:08 AM EDT 9:12 PM EDT
Nautical Twilight 5:28 AM EDT 9:52 PM EDT
Astronomical Twilight 4:44 AM EDT 10:35 PM EDT
Moon 7:30 PM EDT (8/19) 4:57 AM EDT (8/19)
Length of Visible Light 15h 03m
Length of Day
13h 58m
Waxing Gibbous, 97% of the Moon is Illuminated
Aug 19
Waxing Gibbous
Aug 20
Full
Aug 28
Last Quarter
Sep 5
New
Sep 12
First Quarter

Hourly Weather History & Observations

Time (EDT) Temp. Dew Point Humidity Pressure Visibility Wind Dir Wind Speed Gust Speed Precip Events Conditions
12:55 AM 61.0 °F 55.9 °F 83% 30.06 in 10.0 mi SSW 3.5 mph - N/A   Clear
1:55 AM 60.1 °F 57.0 °F 90% 30.05 in 9.0 mi Calm Calm - N/A   Clear
2:55 AM 57.9 °F 55.0 °F 90% 30.04 in 8.0 mi Calm Calm - N/A   Clear
3:55 AM 59.0 °F 55.9 °F 90% 30.03 in 6.0 mi ENE 3.5 mph - N/A   Clear
4:55 AM 57.9 °F 55.9 °F 93% 30.02 in 4.0 mi East 3.5 mph - N/A   Clear
5:55 AM 57.9 °F 55.9 °F 93% 30.02 in 4.0 mi Calm Calm - N/A   Partly Cloudy
6:11 AM 57.9 °F 55.9 °F 93% 30.03 in 2.5 mi Calm Calm - N/A   Clear
6:24 AM 57.9 °F 55.9 °F 93% 30.03 in 1.0 mi Calm Calm - N/A   Clear
6:33 AM 57.0 °F 55.9 °F 96% 30.03 in 0.8 mi Calm Calm - N/A   Mist
6:37 AM 57.0 °F 55.9 °F 96% 30.03 in 1.2 mi Calm Calm - N/A   Clear
6:45 AM 57.9 °F 55.9 °F 93% 30.04 in 2.5 mi Calm Calm - N/A   Clear
6:53 AM 57.2 °F 55.4 °F 94% 30.03 in 1.0 mi ESE 3.5 mph - N/A   Mist
6:55 AM 57.9 °F 55.9 °F 93% 30.03 in 0.8 mi East 3.5 mph - N/A   Mist
7:02 AM 57.9 °F 55.9 °F 93% 30.03 in 1.2 mi East 3.5 mph - N/A   Partly Cloudy
7:12 AM 57.9 °F 55.9 °F 93% 30.04 in 2.0 mi Calm Calm - N/A   Partly Cloudy
7:43 AM 57.9 °F 57.0 °F 97% 30.03 in 3.0 mi Calm Calm - N/A   Clear
7:55 AM 59.0 °F 57.0 °F 93% 30.02 in 3.0 mi Calm Calm - N/A   Clear
8:55 AM 63.0 °F 59.0 °F 87% 30.02 in 7.0 mi Calm Calm - N/A   Clear
9:55 AM 68.0 °F 62.1 °F 81% 30.01 in 8.0 mi Calm Calm - N/A   Clear
10:55 AM 73.0 °F 62.1 °F 68% 30.01 in 10.0 mi SW 4.6 mph - N/A   Clear
11:55 AM 73.9 °F 61.0 °F 64% 30.00 in 10.0 mi SW 8.1 mph 17.3 mph N/A   Clear
12:55 PM 77.0 °F 60.1 °F 56% 29.97 in 10.0 mi WSW 13.8 mph 19.6 mph N/A   Clear
1:55 PM 78.1 °F 60.1 °F 54% 29.95 in 10.0 mi SW 11.5 mph 17.3 mph N/A   Partly Cloudy
2:55 PM 79.0 °F 60.1 °F 52% 29.95 in 10.0 mi SW 15.0 mph 21.9 mph N/A   Partly Cloudy
3:55 PM 78.1 °F 59.0 °F 52% 29.95 in 10.0 mi SW 17.3 mph - N/A   Partly Cloudy
4:55 PM 77.0 °F 59.0 °F 54% 29.95 in 10.0 mi SW 12.7 mph - N/A   Mostly Cloudy
5:55 PM 77.0 °F 59.0 °F 54% 29.94 in 10.0 mi SW 15.0 mph - N/A   Partly Cloudy
6:55 PM 75.0 °F 59.0 °F 57% 29.94 in 10.0 mi SW 9.2 mph 19.6 mph N/A   Partly Cloudy
7:55 PM 73.0 °F 59.0 °F 61% 29.94 in 10.0 mi SW 11.5 mph 17.3 mph N/A   Clear
8:55 PM 71.1 °F 57.9 °F 63% 29.94 in 10.0 mi WSW 8.1 mph - N/A   Clear
9:55 PM 69.1 °F 59.0 °F 70% 29.94 in 10.0 mi SW 5.8 mph - N/A   Clear
10:55 PM 68.0 °F 59.0 °F 73% 29.94 in 10.0 mi SW 8.1 mph - N/A   Clear
11:55 PM 66.9 °F 59.0 °F 76% 29.94 in 10.0 mi SW 6.9 mph - N/A   Scattered Clouds